Regional Weather Roundup
Issued by NWS Green Bay, WI

Home | Current Version | Previous Version | Text Only | Print | Product List | Glossary On
Versions: 1 2 3 4 5 6 7 8 9 10 11 12 13 14 15 16 17 18 19 20 21 22 23 24 25 26 27 28 29 30 31 32 33 34 35 36 37 38 39 40 41 42 43 44 45 46 47 48 49 50
000
ASUS43 KGRB 230800
RWRGRB

NORTH-CENTRAL AND NORTHEAST WISCONSIN REGIONAL WEATHER ROUNDUP
NATIONAL WEATHER SERVICE GREEN BAY WI
200 AM CST THU NOV 23 2017

WIZ005-009-010>012-018-019-230900-
NORTH CENTRAL WISCONSIN

CITY           SKY/WX    TMP DP  RH WIND       PRES   REMARKS
IRONWOOD       CLOUDY    25  19  78 SW8       29.92F
MANITOWISH WTR NOT AVBL
ARBOR VITAE    NOT AVBL
EAGLE RIVER    CLOUDY    23  19  83 SW6       29.93S
LAND O LAKES   NOT AVBL
RHINELANDER    CLOUDY    24  21  88 SW5       29.95R
PHILLIPS       CLOUDY    23  20  89 S5        29.93F
ANTIGO         NOT AVBL
TOMAHAWK       NOT AVBL
MERRILL        CLOUDY    25  20  82 CALM      29.97R
$$

WIZ013-073-230900-
NORTHEAST WISCONSIN

CITY           SKY/WX    TMP DP  RH WIND       PRES   REMARKS
IRON MOUNTAIN  CLOUDY    26  17  68 W5        29.94F
MARINETTE      CLOUDY    29  19  66 SW7       30.01F
$$

WIZ017-030-035>037-045-230900-
CENTRAL WISCONSIN

CITY           SKY/WX    TMP DP  RH WIND       PRES   REMARKS
MEDFORD        NOT AVBL
WAUSAU         CLOUDY    26  20  77 S3        29.96R
MOSINEE        NOT AVBL
MARSHFIELD     CLOUDY    27  17  66 S7        29.94F
WISC RAPIDS    CLOUDY    29  18  63 S6        29.98F
STEVENS POINT  NOT AVBL
WAUPACA        NOT AVBL
SHAWANO        CLOUDY    30  23  75 CALM      29.99F
CLINTONVILLE   NOT AVBL
WAUTOMA        CLOUDY    29  19  66 S5        29.99F
$$

WIZ038-039-048-051-230900-
FOX VALLEY

CITY           SKY/WX    TMP DP  RH WIND       PRES   REMARKS
NWS GREEN BAY  CLOUDY    29  25  85 S7        30.01F
APPLETON       NOT AVBL
OSHKOSH        CLOUDY    29  21  72 S10       30.00F
FOND DU LAC    CLOUDY    31  18  58 S10       30.02F
$$

WIZ022-050-052-230900-
EAST CENTRAL WISCONSIN

CITY           SKY/WX    TMP DP  RH WIND       PRES   REMARKS
EPHRAIM        NOT AVBL
WASHINGTON ISL NOT AVBL
STURGEON BAY   CLOUDY    28  23  81 SW12      30.02F
MANITOWOC      CLOUDY    29  23  78 S8        30.04F
SHEBOYGAN      CLOUDY    30  22  72 SW8       30.04F
$$

LMZ563-521-522-541>543-230900-
LAKESHORE

STATION/POSITION TIME  TEMP    WIND        PRES    VSBY  WAVE
                       AIR SEA DIR/SP/G                  HT/PER
                 (UTC) (F)     (DEG/KT/KT) (MB)    (MI)  (FT/S)
SHEBOYGAN LKSHOR 0700   29     200/  7/  8 1019.5F
KEWAUNEE LKSHORE 0730   29     220/  6/ 11 1016.7F
NORTHPORT PIER   0740   31     240/  8/ 13 1016.3F
N MID LAKE BUOY  0650   34 47  230/ 19/ 23 1017.3F         4/ 5
SISTER BAY LKSHO 0719   33     260/ 17/ 20   N/A
MENOMINEE LKSHOR 0730   29     210/  9/ 10 1016.2F
$$




USA.gov is the U.S. government's official web portal to all federal, state and local government web resources and services.